Lapse_Rate
7.1 6.3 6.3 7.2 7.3 7.7 7.6 7.4 7.3 7.1 6.8 6.6 6.4 6.2 6.0 5.9 5.8 5.7 5.5 5.6 5.5 5.4 5.3 5.3 5.2 5.2 5.2 5.3 5.4 5.7 5.8 6.0 6.1 6.1 6.1 6.2 6.1 6.1 6.1 6.1 6.1 6.0 5.9
7.0 6.6 6.1 6.6 6.9 7.1 7.6 7.4 7.3 7.1 7.0 6.7 6.5 6.4 6.2 6.1 5.9 5.9 5.8 5.8 5.7 5.4 5.4 5.5 5.4 5.4 5.5 5.6 5.8 5.8 6.0 6.0 6.0 6.2 6.1 6.2 6.2 6.2 6.1 6.0 6.1 6.1 6.1
6.6 5.1 6.1 6.7 6.8 6.8 6.9 6.9 7.1 7.0 6.8 6.7 6.7 6.5 6.4 6.3 6.1 6.0 6.0 5.8 5.7 5.7 5.6 5.6 5.6 5.6 5.6 5.7 5.7 6.0 6.1 5.9 6.0 6.2 6.1 6.1 6.1 6.1 6.1 6.2 6.2 6.3 6.3
7.1 6.9 5.9 5.9 6.7 6.7 7.0 7.0 7.0 6.9 6.8 6.9 6.9 6.8 6.4 6.3 6.1 5.9 5.9 5.8 5.7 5.6 5.7 5.6 5.5 5.6 5.6 5.7 5.7 6.1 6.2 6.3 6.3 6.2 6.1 6.1 6.1 6.2 6.2 6.2 6.2 6.2 6.2
6.8 6.7 6.8 6.2 6.5 6.7 6.5 6.7 6.6 6.7 6.7 6.7 6.7 6.6 6.4 6.1 5.9 5.9 6.0 6.0 5.9 5.8 5.7 5.4 5.6 5.8 5.8 5.7 5.8 6.2 6.1 6.3 6.2 6.1 6.1 6.1 6.1 6.2 6.3 6.4 6.4 6.3 6.3
6.5 6.5 6.1 6.7 6.5 6.6 6.6 6.5 6.5 6.6 6.5 6.6 6.7 6.5 6.2 6.0 5.8 5.8 6.1 6.0 5.8 5.6 5.6 5.6 5.7 5.6 5.6 5.6 5.7 6.3 6.1 5.8 6.1 6.1 6.0 6.1 6.2 6.3 6.3 6.3 6.3 6.4 6.5
6.6 6.9 6.4 5.7 5.8 6.3 6.3 6.3 6.1 6.3 6.6 6.7 6.6 6.3 5.9 5.8 5.9 5.8 5.9 5.8 5.7 5.5 5.7 5.7 5.5 5.6 5.6 5.6 5.7 6.2 6.4 6.1 6.1 6.2 6.3 6.2 6.2 6.2 6.2 6.1 6.1 6.1 6.2
6.6 6.5 6.1 5.3 4.7 5.9 6.0 5.7 5.8 6.1 6.6 6.5 6.3 6.0 5.7 5.7 5.8 5.8 5.7 5.8 5.7 5.8 5.7 5.6 5.5 5.7 5.8 5.8 5.7 5.8 6.4 6.3 6.3 6.3 6.2 6.2 6.2 6.1 6.1 6.2 6.1 6.1 6.1
6.7 6.9 6.1 5.8 5.6 5.8 5.5 5.7 5.6 6.1 6.3 6.2 5.9 5.7 5.7 5.4 5.5 5.6 5.5 5.7 5.7 5.7 5.6 5.7 5.8 5.7 5.8 5.9 5.8 5.8 6.5 6.5 6.4 6.4 6.3 6.3 6.1 6.1 6.1 6.1 6.1 6.1 6.0
6.7 6.4 6.4 5.9 5.9 5.7 5.8 5.1 5.6 5.9 5.9 5.7 5.3 5.5 5.8 5.4 5.6 5.6 5.5 5.2 5.4 5.6 5.6 5.5 6.0 6.0 5.9 5.8 5.7 5.7 6.4 6.5 6.4 6.3 6.1 6.0 5.9 5.8 5.8 5.9 6.0 6.0 5.9
7.4 6.6 6.1 5.9 5.3 4.6 5.0 5.3 5.1 5.6 5.6 5.2 5.5 5.4 5.7 5.5 5.5 5.3 5.2 5.2 5.1 5.3 5.7 5.6 6.0 5.9 6.1 6.0 5.8 5.8 6.3 6.0 5.9 6.0 6.0 5.8 5.8 5.8 5.9 5.9 6.0 6.1 6.2
7.1 6.6 6.4 6.0 6.4 5.7 5.2 5.3 5.2 5.6 5.7 5.2 5.1 5.3 5.2 5.5 5.4 5.3 5.1 5.2 5.1 5.2 5.9 6.0 5.8 5.9 5.9 6.1 5.9 6.0 6.1 5.9 5.7 5.7 5.6 5.6 5.7 5.8 5.9 6.1 6.0 5.8 5.6
6.9 6.5 6.6 6.5 6.2 5.8 5.6 5.5 5.2 5.4 5.0 4.8 4.9 5.3 5.2 5.0 5.0 5.0 5.0 5.3 5.5 5.5 6.6 6.7 6.6 6.3 6.0 6.3 6.0 5.9 5.8 5.9 5.7 5.5 5.4 5.6 5.8 5.9 5.8 5.8 5.7 5.4 5.3
7.1 7.2 6.6 6.1 6.4 6.4 6.2 6.0 5.4 5.2 4.3 4.5 4.8 5.1 4.9 4.8 5.1 5.5 5.3 5.4 6.1 5.6 5.6 5.8 6.3 6.0 6.2 6.0 5.8 5.9 5.7 5.9 5.5 5.4 5.6 5.7 5.7 5.6 5.5 5.4 5.5 5.5 5.6
6.8 6.5 6.1 5.8 5.6 5.9 6.0 5.7 5.3 4.7 3.8 4.3 4.6 4.8 4.3 4.7 4.9 4.9 5.2 5.7 6.4 6.0 6.3 6.0 5.9 6.1 5.9 5.9 5.8 5.7 5.5 5.5 5.7 5.8 5.6 5.6 5.4 5.3 5.4 5.4 5.5 5.6 5.7
6.6 6.5 6.0 5.8 5.7 5.6 5.5 5.6 5.5 4.5 5.1 4.0 4.0 4.1 3.9 4.3 4.3 5.3 5.7 6.2 6.5 6.1 6.1 5.8 5.8 6.0 5.8 5.9 5.8 5.6 5.6 5.5 5.7 5.6 5.5 5.5 5.3 5.3 5.2 5.2 5.5 5.6 5.6
5.7 5.5 5.4 5.7 5.5 5.4 5.5 5.2 5.3 5.1 4.6 4.1 3.7 4.6 4.1 4.0 5.1 5.8 5.9 6.4 6.3 6.1 5.9 5.7 5.9 6.1 6.0 5.8 5.7 5.7 5.8 5.8 5.3 5.3 5.4 5.2 5.3 5.4 5.3 5.3 5.2 5.2 5.3
5.4 5.2 5.1 5.2 5.2 5.2 5.3 5.1 5.2 4.9 5.0 4.7 4.7 4.1 4.2 5.4 5.8 5.9 6.3 6.2 6.1 6.2 6.1 6.3 6.2 6.1 6.0 5.8 5.8 5.9 5.9 5.8 5.7 5.2 5.1 5.2 5.3 5.4 5.3 5.4 5.3 5.4 5.6
6.7 5.9 5.2 4.6 4.7 4.9 5.3 5.3 4.9 5.1 4.9 5.0 5.0 4.2 5.2 5.9 6.2 6.3 6.1 5.9 6.1 6.1 6.4 6.3 6.1 6.0 6.0 6.0 6.0 5.9 5.9 5.8 5.4 5.4 5.5 5.2 5.4 5.3 5.3 5.3 5.6 5.7 5.8
6.8 6.7 6.1 5.0 5.0 5.3 5.2 4.7 4.7 4.3 4.9 4.7 4.9 5.2 5.8 6.0 6.2 6.0 6.1 6.1 6.4 6.2 6.4 6.1 5.9 6.1 6.1 6.0 5.8 6.0 5.9 5.7 5.4 5.4 5.7 5.8 5.6 5.5 5.5 5.4 5.7 5.9 6.0
6.8 6.7 6.8 6.8 6.3 5.7 6.0 5.6 5.0 5.8 5.7 5.4 5.6 6.1 6.1 6.0 6.1 6.0 6.1 6.3 6.4 6.5 6.2 6.2 6.3 6.1 6.2 6.0 5.7 5.4 5.4 5.3 5.5 5.4 5.8 5.8 6.0 6.1 5.9 5.7 5.8 6.0 6.2
6.9 6.7 6.8 6.6 6.8 6.6 6.1 6.0 6.1 6.0 5.7 6.0 6.4 6.4 6.2 6.1 6.3 6.1 6.2 6.4 6.3 6.5 6.5 6.3 6.1 6.1 5.8 6.0 5.6 5.4 5.3 5.3 5.5 5.3 5.3 5.1 5.3 5.9 6.3 6.1 5.9 6.1 6.3
7.1 7.0 6.9 6.8 6.8 6.8 6.5 6.3 6.1 6.1 5.9 6.1 6.3 6.3 6.5 6.5 6.6 6.2 6.3 6.4 6.5 6.5 6.4 6.4 6.1 5.9 5.8 5.8 5.9 5.6 5.4 5.6 5.7 5.5 5.1 5.1 5.1 5.7 6.1 5.8 6.1 6.4 6.7
7.1 7.1 7.1 7.0 6.8 6.8 6.9 6.7 6.5 6.8 6.8 6.8 6.7 6.6 6.3 6.4 6.4 6.7 6.6 6.8 6.6 6.3 6.4 6.2 6.2 5.9 5.9 5.9 5.8 5.9 5.3 5.5 5.4 5.2 5.3 5.5 5.6 5.6 5.6 5.6 5.9 6.2 6.5
7.3 7.2 7.2 7.2 7.1 7.0 6.9 6.7 6.7 6.6 6.7 6.6 6.5 6.5 6.6 6.9 7.0 6.8 6.6 6.4 6.4 6.3 6.3 6.1 5.9 5.9 6.2 5.8 5.7 5.6 5.4 4.9 5.2 5.0 5.5 6.0 5.7 5.5 5.2 5.5 5.4 5.6 6.0
7.3 7.1 7.1 7.2 7.2 7.0 7.1 7.0 7.0 7.0 7.1 7.2 7.2 6.8 6.6 6.6 6.7 6.6 6.0 6.3 6.5 6.3 6.2 6.1 6.1 6.0 6.1 6.0 5.8 5.4 5.3 5.6 5.9 5.8 5.6 5.4 5.7 5.8 5.5 5.4 5.4 5.5 5.5
Wind_Speed
7 15 20 19 20 26 29 29 28 26 25 26 27 28 28 28 29 29 31 30 28 27 27 27 26 27 27 27 26 26 27 30 31 28 28 28 29 28 28 27 26 25 28
15 8 21 21 19 24 28 28 27 27 28 27 27 29 28 28 27 28 30 29 28 27 26 26 25 24 24 24 22 20 22 28 28 29 26 27 27 27 27 27 26 24 25
13 11 16 21 22 22 24 25 27 27 26 27 27 28 28 29 27 28 28 28 28 26 26 25 23 21 22 21 18 15 12 5 14 24 23 18 22 25 26 26 26 26 26
7 21 24 21 22 23 26 26 27 27 26 27 28 27 27 28 27 27 29 27 26 25 25 23 21 18 18 17 16 15 17 31 28 24 20 18 21 25 25 26 26 25 24
6 25 32 34 25 25 24 26 26 27 25 26 28 27 26 26 27 26 28 27 26 24 24 21 18 16 15 16 17 17 17 24 30 27 22 21 18 22 23 23 23 23 25
4 16 21 30 31 28 26 27 27 26 26 26 26 27 26 25 26 26 26 26 25 24 22 19 16 14 15 15 15 18 31 27 26 25 21 20 19 20 21 21 22 24 25
6 6 12 23 29 30 28 28 27 26 26 26 26 27 26 25 25 25 26 25 24 23 21 17 14 14 15 15 18 26 24 21 26 22 22 22 19 20 20 20 20 21 22
7 5 16 23 29 29 24 26 25 26 27 27 26 26 25 25 25 25 26 25 23 22 19 17 15 14 14 15 18 22 22 20 22 22 22 21 19 18 18 19 20 20 21
11 10 13 14 23 28 26 27 24 26 27 26 25 25 25 24 25 25 24 24 21 21 19 18 16 13 12 13 16 19 24 25 19 19 18 19 17 17 16 17 19 20 20
9 12 15 16 6 24 25 24 27 26 29 27 25 26 26 24 24 24 23 22 20 20 19 18 17 13 11 12 15 17 25 26 19 19 19 17 16 15 15 16 17 18 18
9 11 11 17 20 21 22 25 26 27 30 28 26 25 22 19 19 18 20 20 19 19 18 17 14 10 10 12 12 14 20 17 18 17 18 17 15 14 14 14 15 16 16
7 7 10 11 17 21 20 15 17 22 21 19 20 20 16 18 18 19 20 21 18 15 15 14 10 7 8 10 13 16 20 17 16 16 16 15 13 12 12 13 13 14 15
4 7 13 11 18 17 16 13 12 15 15 19 17 16 16 18 17 16 17 18 17 12 9 11 8 4 4 8 13 13 17 14 16 12 14 13 12 10 11 12 12 13 13
7 6 13 11 11 12 11 9 10 9 13 15 16 18 17 13 13 12 12 15 16 13 10 8 6 9 10 13 10 10 11 14 14 11 11 13 10 11 10 11 11 11 12
9 9 8 9 10 12 11 12 11 9 16 13 13 17 16 12 10 13 12 14 13 12 10 9 11 9 10 11 10 11 7 13 13 11 8 9 9 6 10 11 12 11 11
11 9 10 9 11 13 8 12 10 13 11 10 13 17 17 16 11 11 11 11 12 15 14 15 11 8 7 10 8 7 9 8 11 11 8 6 6 7 8 11 12 10 11
8 10 10 12 15 13 10 13 14 17 7 2 9 12 11 9 7 13 8 6 13 17 12 11 8 10 9 9 6 7 6 8 8 8 7 7 5 5 7 10 11 10 11
13 12 10 10 14 13 9 13 15 11 10 3 5 10 5 8 14 10 8 8 14 14 14 10 6 3 3 4 3 2 7 7 5 3 12 12 8 7 9 11 12 10 10
12 14 13 12 15 13 10 14 12 12 14 19 16 8 12 16 11 11 8 9 14 13 9 6 2 3 3 4 4 4 5 6 6 5 11 14 13 11 12 13 14 13 11
11 10 14 12 13 16 11 13 13 13 17 18 10 14 15 13 11 12 8 11 15 7 4 3 3 2 3 4 2 3 3 5 9 7 7 6 13 17 14 14 13 14 15
10 13 12 11 13 11 8 8 9 10 8 6 13 15 16 12 14 15 10 11 12 5 6 6 3 4 1 2 3 2 2 3 5 5 8 9 9 17 18 14 15 14 14
15 13 13 14 15 11 9 10 7 9 9 11 12 14 16 16 16 13 10 7 8 4 5 6 5 2 3 3 3 1 1 3 3 4 3 5 7 11 12 18 17 17 18
17 16 17 18 18 14 15 9 8 5 3 4 5 5 11 19 18 18 13 12 8 5 5 6 6 6 4 3 5 4 1 3 1 2 4 3 5 5 11 11 13 15 19
18 18 21 20 19 16 17 12 11 7 9 7 6 7 8 17 16 17 14 15 12 8 5 5 4 4 4 4 1 3 2 4 3 1 2 3 4 6 7 10 11 16 17
19 19 18 18 18 18 17 14 11 11 9 6 6 8 8 7 13 14 13 12 9 8 6 7 6 6 4 3 3 2 1 2 1 2 3 3 1 4 7 11 16 15 14
20 19 18 19 18 18 18 18 14 9 9 7 7 8 5 4 4 9 9 12 11 7 6 5 5 7 5 4 3 2 3 3 3 3 3 5 3 4 4 8 11 15 18
Wind_Direction
0 161 138 131 135 127 123 121 118 114 110 109 108 105 104 102 102 101 103 101 99 97 95 93 93 94 95 93 92 92 95 92 85 75 71 71 68 67 66 64 64 64 66
84 175 147 141 139 130 126 122 120 120 119 117 113 111 108 107 105 103 107 105 102 100 98 97 98 98 96 93 89 93 100 92 83 83 75 72 71 71 70 69 69 69 66
140 103 165 139 137 130 123 121 121 121 119 117 115 113 112 111 109 107 108 107 107 105 102 100 97 97 93 88 83 79 84 39 73 81 75 73 77 72 72 74 70 70 69
239 136 158 156 138 135 129 128 125 122 122 120 117 114 114 115 115 113 112 110 107 106 105 103 100 92 84 79 79 73 71 80 87 80 72 68 67 74 74 72 74 72 72
202 165 171 155 142 138 134 125 123 122 121 120 117 117 118 119 118 116 115 115 112 109 107 105 97 84 73 67 56 51 68 101 90 82 76 73 75 77 76 73 74 77 79
159 147 148 143 147 140 129 125 123 122 121 119 117 117 120 122 123 121 120 117 115 113 108 103 93 80 71 64 57 42 108 99 96 91 85 77 74 78 77 78 78 77 78
108 193 113 151 145 132 129 124 123 125 122 120 120 118 119 122 123 123 120 118 117 115 111 107 94 81 72 62 56 59 111 110 102 98 92 87 83 83 84 84 83 82 78
130 85 114 162 133 118 116 116 126 124 121 119 116 115 114 114 116 115 118 119 119 117 115 109 97 79 69 59 52 58 88 106 101 101 97 92 87 88 88 88 89 86 84
98 83 70 120 128 126 127 125 125 120 117 113 111 111 108 109 111 114 117 120 123 121 116 110 100 87 72 60 49 37 43 117 106 106 105 100 97 95 94 95 94 91 87
106 91 74 65 48 112 114 138 109 113 110 108 109 108 110 112 113 117 120 123 123 121 117 115 116 110 89 66 45 36 74 96 107 113 112 109 106 102 102 101 100 97 93
108 112 123 118 105 94 137 120 119 120 119 116 116 115 111 111 105 106 119 120 121 124 126 131 129 124 101 70 50 36 83 107 105 113 118 118 115 112 110 109 107 107 103
128 123 130 136 127 134 134 139 128 120 117 122 122 119 117 110 110 112 118 121 126 134 141 132 131 124 83 57 68 58 82 109 112 120 127 126 121 119 121 122 118 112 110
94 125 146 141 137 150 149 145 136 120 128 123 116 122 119 115 114 118 124 133 138 148 146 134 129 113 79 115 78 66 77 114 118 121 125 134 135 135 135 133 125 120 120
84 103 122 123 131 126 121 125 119 113 128 123 129 136 132 127 135 143 142 152 146 164 164 153 157 135 106 89 90 82 74 99 117 125 126 126 134 147 147 141 135 139 134
98 90 105 111 122 118 122 124 115 131 111 126 134 139 139 145 142 144 156 158 165 180 172 163 142 125 110 96 80 80 84 81 130 124 132 137 128 144 164 162 158 151 147
105 90 98 91 100 108 112 118 97 85 89 128 145 131 139 139 157 155 160 180 178 202 173 165 149 156 140 121 99 104 89 86 103 141 123 112 142 160 177 182 167 163 159
110 108 101 104 100 93 93 101 110 96 92 73 116 122 158 149 183 170 182 177 194 189 172 162 154 136 136 135 142 133 122 105 94 88 151 128 128 138 167 168 173 173 169
133 125 113 113 113 108 102 103 104 102 98 87 173 222 217 224 217 158 179 180 184 142 142 141 149 146 139 154 140 191 141 132 117 135 159 152 131 116 115 146 158 176 188
144 137 134 135 128 125 119 120 136 143 140 190 229 228 238 222 197 188 182 179 165 150 149 160 158 151 170 161 174 170 152 141 183 184 147 150 160 152 140 142 145 148 160
149 146 151 153 144 145 151 157 160 170 196 220 223 229 235 225 209 195 180 203 174 153 157 161 158 173 160 174 155 178 191 181 190 179 165 161 149 167 168 169 173 181 183
164 151 158 157 157 151 161 175 172 187 207 231 222 212 209 231 244 206 192 179 176 156 182 171 151 169 147 150 83 15 261 251 187 188 189 182 179 165 180 186 194 198 195
169 162 166 169 173 175 178 178 187 199 210 207 199 197 207 215 227 204 182 178 185 150 181 174 156 150 178 182 133 127 284 347 316 228 192 196 195 194 182 185 201 203 196
173 172 176 180 183 184 191 203 212 181 186 193 205 204 206 202 212 202 188 171 185 181 184 179 168 158 185 229 188 155 172 207 235 320 236 215 199 193 197 199 222 194 193
180 182 181 187 192 200 204 205 203 195 202 206 195 197 206 207 206 191 194 175 185 198 178 181 168 153 132 209 248 215 144 152 170 11 312 226 217 214 215 219 207 216 214
183 186 191 191 196 196 200 204 200 206 197 191 188 187 202 201 184 179 198 190 176 184 178 175 163 158 198 156 167 148 183 205 129 139 227 256 270 235 225 214 217 219 205
183 188 193 195 200 201 203 210 208 201 207 187 183 180 178 183 158 168 193 173 173 167 169 182 175 164 164 143 118 149 198 191 193 169 206 246 206 261 242 236 230 222 221